Home   Weather   Mason   Past weeks

Flag for USA Past Weather in Mason, Ohio, USA — Yesterday and Last 2 Weeks

Now
52 °F

Passing clouds.


Feels Like: 52 °F
Forecast: 58 / 68 °F
Wind: No wind

Location: Butler County Regional Airport

Current Time: Feb 23, 2017 at 2:20:25 am

Latest Report: Feb 23, 2017 at 1:53 am


Visibility: 7 mi

Pressure: 29.79 "Hg

Humidity: 100%

Dew Point: 52 °F

Location of MasonLocation

Past Weather in Mason — Graph

°F

Mason Temperature Yesterday

Maximum temperature yesterday: 65 °F (at 1:53 pm)
Minimum temperature yesterday: 52 °F (at 12:02 am)
Average temperature yesterday: 57 °F

High & Low Weather Summary for the Past Weeks

 TemperatureHumidityPressure
High68 °F (Feb 17, 2:53 pm)100% (Feb 8, 8:29 pm)30.44 "Hg (Feb 8, 8:29 pm)
Low12 °F (Feb 9, 10:53 pm)27% (Feb 13, 3:53 pm)29.66 "Hg (Feb 8, 12:53 am)
Average45 °F73%29.99 "Hg
* Reported Feb 8 12:53 am — Feb 23 12:53 am, Mason, Weather by CustomWeather, © 2017

Note: Actual official high and low records may vary slightly from our data, if they occured in-between our weather recording intervals... More about our weather records

Advertising

Mason Weather History for the Previous 24 Hours

Scroll right to see more
 ConditionsComfort  
Time TempWeatherWind HumidityBarometerVisibility
12:53 am
Thu, Feb 23
52 °FClear.3 mph97%29.78 "Hg8 mi
11:53 pm
Wed, Feb 22
56 °FClear.3 mph97%29.79 "Hg10 mi
10:53 pm54 °FFog.3 mph100%29.80 "Hg6 mi
9:53 pm53 °FFog.3 mph100%29.82 "Hg4 mi
8:53 pm58 °FPassing clouds.5 mph93%29.81 "Hg9 mi
7:53 pm60 °FMostly cloudy.No wind93%29.82 "Hg10 mi
6:53 pm62 °FOvercast.No wind86%29.81 "Hg10 mi
5:53 pm64 °FOvercast.No wind81%29.80 "Hg10 mi
5:24 pm64 °FOvercast.No wind81%29.81 "Hg10 mi
4:53 pm64 °FOvercast.5 mph81%29.80 "Hg10 mi
3:53 pm65 °FOvercast.7 mph76%29.81 "Hg9 mi
2:53 pm65 °FOvercast.7 mph78%29.82 "Hg8 mi
2:10 pm65 °FOvercast.6 mph78%29.84 "Hg9 mi
1:53 pm65 °FOvercast.7 mph81%29.85 "Hg8 mi
12:53 pm61 °FFog.3 mph90%29.88 "Hg6 mi
12:06 pm60 °FFog.3 mph93%29.91 "Hg6 mi
11:53 am60 °FFog.5 mph93%29.90 "Hg5 mi
10:53 am59 °FFog.6 mph93%29.91 "Hg5 mi
10:05 am58 °FFog.No wind97%29.93 "Hg3 mi
9:53 am57 °FFog.No wind100%29.93 "Hg2 mi
9:41 am57 °FFog.No wind100%29.93 "Hg2 mi
9:33 am57 °FFog.No wind100%29.93 "Hg2 mi
8:53 am57 °FLight rain. Fog.3 mph96%29.94 "Hg2 mi
8:31 am57 °FFog.No wind100%29.94 "Hg2 mi
8:21 am56 °FFog.No wind100%29.94 "Hg2 mi
7:53 am56 °FFog.No wind100%29.94 "Hg1 mi
7:27 am56 °FFog.No wind100%29.94 "Hg2 mi
7:05 am56 °FFog.No wind100%29.94 "Hg3 mi
6:53 am56 °FFog.No wind100%29.93 "Hg2 mi
6:35 am56 °FLight rain. Fog.No wind100%29.94 "Hg2 mi
6:06 am56 °FFog.No wind100%29.93 "Hg2 mi
5:40 am56 °FFog.No wind100%29.93 "Hg1 mi
5:12 am56 °FLight rain. Fog.No wind100%29.93 "Hg1 mi
4:53 am55 °FLight rain. Fog.3 mph100%29.93 "Hg1 mi
4:28 am55 °FLight rain. Fog.No wind100%29.93 "Hg1 mi
3:53 am55 °FLight rain. Fog.3 mph100%29.93 "Hg1 mi
3:33 am55 °FLight rain. Fog.No wind100%29.93 "Hg1 mi
3:08 am55 °FLight rain. Fog.No wind100%29.93 "Hg1 mi
2:30 am53 °FLight rain. Fog.No wind100%29.94 "Hg1 mi
2:11 am52 °FFog.No wind100%29.94 "Hg1 mi
Weather by CustomWeather, © 2017

See weather overviewHow to use our weather pages